Flag for U.S.A. Weather past 2 weeks in Hampton, Virginia, U.S.A.

Now
68 °F

Partly cloudy.


Feels Like: 68 °F
Forecast: 72 / 83 °F
Wind: 9 mph from Southwest

Location: Langley Air Force Base

Current Time: May 29, 2015 at 6:52:46 AM

Latest Report: May 29, 2015 at 5:58 AM


Visibility: 10 mi

Pressure: 30.23 "Hg

Humidity: 91%

Dew point: 65 °F

Location of HamptonLocation

Historic Weather in Hampton — Graph

°F

Hampton temperature yesterday

Maximum temperature yesterday: 84 °F (at 1:58 PM)
Minimum temperature yesterday: 71 °F (at 4:58 AM)
Average temperature yesterday: 77 °F

Past Weeks' High & Low Weather Summary

 TemperatureHumidityPressure
High88 °F (May 27, 3:58 PM)100% (May 17, 9:03 PM)30.47 "Hg (May 17, 9:03 PM)
Low50 °F (May 15, 4:58 AM)32% (May 23, 2:58 PM)29.81 "Hg (May 21, 5:03 PM)
Average71 °F69%30.19 "Hg
* Reported May 14 4:58 AM — May 29 4:58 AM, Hampton, Weather by CustomWeather, © 2015

Note: Actual official high and low records may vary slightly from our data, if they occured in-between our weather recording intervals... More about our weather records

Advertising

Hampton weather history for previous 24 hours

 ConditionsComfort  
Time TempWeatherWind HumidityBarometerVisibility
4:58 AM
Fri, May 29
69 °FOvercast.14 mph88%30.22 "Hg10 mi
3:58 AM71 °FPassing clouds.8 mph79%30.22 "Hg10 mi
2:58 AM71 °FPassing clouds.8 mph77%30.22 "Hg10 mi
1:58 AM72 °FPassing clouds.13 mph76%30.23 "Hg10 mi
12:58 AM73 °FPassing clouds.12 mph75%30.23 "Hg10 mi
11:58 PM
Thu, May 28
75 °FClear.12 mph75%30.23 "Hg10 mi
10:58 PM76 °FClear.6 mph75%30.23 "Hg10 mi
9:58 PM76 °FClear.8 mph77%30.21 "Hg10 mi
8:58 PM78 °FSunny.8 mph73%30.20 "Hg10 mi
7:58 PM80 °FPassing clouds.5 mph72%30.18 "Hg10 mi
6:58 PM82 °FPassing clouds.5 mph68%30.18 "Hg9 mi
5:58 PM77 °FScattered clouds.6 mph82%30.18 "Hg7 mi
5:03 PM77 °FLight rain. Scattered clouds.6 mph79%30.16 "Hg2 mi
4:58 PM77 °FLight rain. Broken clouds.3 mph77%30.19 "Hg2 mi
4:03 PM82 °FThunderstorms. Scattered clouds.13 mph66%30.18 "Hg10 mi
3:58 PM83 °FThunderstorms. Passing clouds.6 mph61%30.19 "Hg10 mi
2:58 PM84 °FBroken clouds.9 mph63%30.20 "Hg10 mi
1:58 PM84 °FOvercast.8 mph63%30.21 "Hg10 mi
12:58 PM83 °FBroken clouds.7 mph66%30.22 "Hg10 mi
11:58 AM80 °FScattered clouds.9 mph71%30.23 "Hg9 mi
10:58 AM78 °FScattered clouds.13 mph74%30.23 "Hg10 mi
9:58 AM76 °FPartly sunny.14 mph78%30.23 "Hg10 mi
8:58 AM74 °FPassing clouds.13 mph81%30.24 "Hg10 mi
7:58 AM72 °FPartly sunny.13 mph84%30.24 "Hg10 mi
6:58 AM71 °FPartly sunny.12 mph86%30.23 "Hg10 mi
Weather by CustomWeather, © 2015

See weather overviewHow to use our weather pages